Location: Cajon Junction
(34.3117°N, 117.4748°W)
Time: 15:30:25
(UTC+00:00)

SL-14 R/B - Pass Details

Date: 18 April 2024
Orbit: 508 x 541 km, 82.4° (Epoch: 19 May)

Event Time Altitude Azimuth Distance (km) Brightness Sun altitude
Rises 12:38:10 0° 179° (S) 2,674 6.6 -8.0°
Reaches altitude 10° 12:40:18 10° 176° (S) 1,791 5.8 -7.5°
Maximum altitude 12:44:13 65° 94° (E) 598 3.8 -6.8°
Drops below altitude 10° 12:48:10 10° 13° (NNE) 1,813 6.4 -6.0°
Sets 12:50:21 0° 11° (N) 2,711 7.3 -5.6°
